QPF
0.01 0.00 0.00 0.00 0.00 0.00 0.00 0.00 0.00 0.00 0.00 0.00 0.00 0.00 0.01 0.02 0.02 0.01 0.00 0.00 0.00 0.01 0.01 0.02 0.03 0.04 0.06 0.07 0.08 0.08 0.09 0.09 0.08 0.08 0.07 0.06 0.05 0.05 0.04 0.03 0.03 0.03 0.03
0.02 0.02 0.03 0.02 0.01 0.00 0.00 0.00 0.00 0.00 0.00 0.00 0.00 0.00 0.00 0.01 0.02 0.01 0.01 0.00 0.00 0.00 0.00 0.01 0.02 0.03 0.05 0.07 0.09 0.09 0.10 0.10 0.09 0.09 0.09 0.09 0.08 0.07 0.06 0.05 0.04 0.04 0.03
0.04 0.05 0.06 0.06 0.04 0.03 0.02 0.01 0.01 0.00 0.00 0.00 0.00 0.00 0.00 0.01 0.01 0.01 0.01 0.00 0.00 0.00 0.00 0.00 0.01 0.02 0.03 0.05 0.07 0.08 0.09 0.11 0.12 0.11 0.10 0.10 0.09 0.08 0.08 0.08 0.07 0.06 0.05
0.05 0.05 0.05 0.04 0.03 0.03 0.02 0.02 0.01 0.01 0.01 0.01 0.01 0.01 0.01 0.01 0.01 0.00 0.00 0.00 0.00 0.00 0.00 0.00 0.01 0.01 0.01 0.03 0.05 0.08 0.10 0.11 0.11 0.11 0.11 0.10 0.09 0.09 0.08 0.08 0.08 0.08 0.08
0.07 0.05 0.06 0.05 0.04 0.03 0.03 0.02 0.01 0.01 0.01 0.01 0.00 0.00 0.00 0.00 0.00 0.00 0.00 0.00 0.00 0.00 0.00 0.00 0.01 0.01 0.01 0.02 0.03 0.06 0.11 0.14 0.16 0.15 0.13 0.12 0.11 0.11 0.11 0.10 0.08 0.08 0.08
0.05 0.04 0.03 0.04 0.04 0.03 0.02 0.01 0.00 0.00 0.00 0.00 0.00 0.00 0.00 0.00 0.00 0.00 0.00 0.00 0.00 0.00 0.00 0.01 0.01 0.01 0.01 0.01 0.02 0.03 0.07 0.10 0.14 0.15 0.14 0.13 0.13 0.13 0.14 0.14 0.12 0.09 0.08
0.04 0.03 0.01 0.01 0.01 0.01 0.01 0.00 0.00 0.00 0.00 0.00 0.00 0.00 0.00 0.00 0.00 0.00 0.00 0.00 0.00 0.00 0.00 0.01 0.01 0.01 0.01 0.01 0.01 0.01 0.02 0.04 0.07 0.09 0.11 0.11 0.12 0.13 0.13 0.14 0.12 0.10 0.09
0.04 0.02 0.02 0.01 0.01 0.01 0.00 0.00 0.00 0.00 0.00 0.00 0.00 0.00 0.00 0.00 0.00 0.00 0.00 0.00 0.00 0.00 0.00 0.00 0.00 0.00 0.00 0.00 0.01 0.01 0.02 0.02 0.03 0.05 0.07 0.09 0.10 0.11 0.11 0.12 0.13 0.12 0.11
0.03 0.02 0.01 0.01 0.01 0.01 0.01 0.01 0.01 0.01 0.01 0.00 0.00 0.01 0.00 0.00 0.00 0.00 0.00 0.00 0.00 0.00 0.00 0.00 0.00 0.00 0.00 0.00 0.00 0.00 0.00 0.01 0.01 0.02 0.04 0.05 0.07 0.09 0.09 0.11 0.12 0.13 0.12
0.03 0.01 0.00 0.01 0.01 0.01 0.01 0.01 0.00 0.00 0.01 0.01 0.00 0.00 0.00 0.00 0.00 0.00 0.00 0.00 0.00 0.00 0.00 0.00 0.00 0.00 0.00 0.00 0.00 0.00 0.00 0.01 0.01 0.01 0.03 0.04 0.06 0.07 0.08 0.09 0.10 0.11 0.12
0.03 0.02 0.01 0.01 0.01 0.01 0.01 0.01 0.00 0.00 0.00 0.00 0.00 0.00 0.00 0.00 0.00 0.00 0.00 0.00 0.00 0.00 0.00 0.00 0.00 0.00 0.00 0.00 0.00 0.00 0.00 0.00 0.01 0.01 0.02 0.03 0.04 0.05 0.08 0.10 0.11 0.11 0.10
0.03 0.03 0.02 0.02 0.02 0.01 0.01 0.01 0.01 0.00 0.00 0.00 0.00 0.00 0.00 0.00 0.00 0.00 0.00 0.00 0.00 0.00 0.00 0.00 0.00 0.00 0.00 0.00 0.00 0.00 0.00 0.00 0.00 0.01 0.01 0.02 0.02 0.03 0.05 0.07 0.09 0.10 0.11
0.03 0.03 0.03 0.02 0.02 0.02 0.01 0.01 0.01 0.01 0.00 0.00 0.00 0.00 0.00 0.00 0.00 0.00 0.00 0.00 0.00 0.00 0.00 0.00 0.00 0.00 0.00 0.00 0.00 0.00 0.00 0.00 0.00 0.01 0.01 0.01 0.02 0.02 0.02 0.05 0.07 0.09 0.10
0.03 0.02 0.02 0.02 0.02 0.02 0.01 0.01 0.00 0.01 0.00 0.00 0.00 0.00 0.00 0.00 0.00 0.00 0.00 0.00 0.00 0.00 0.00 0.00 0.00 0.00 0.00 0.00 0.00 0.00 0.00 0.00 0.00 0.00 0.01 0.01 0.01 0.01 0.02 0.02 0.05 0.06 0.06
0.02 0.02 0.01 0.01 0.01 0.01 0.01 0.01 0.00 0.00 0.00 0.00 0.00 0.00 0.00 0.00 0.00 0.00 0.00 0.00 0.00 0.00 0.00 0.00 0.00 0.00 0.00 0.00 0.00 0.00 0.00 0.00 0.00 0.00 0.01 0.01 0.02 0.02 0.02 0.02 0.02 0.03 0.03
0.02 0.01 0.01 0.01 0.01 0.01 0.01 0.01 0.00 0.00 0.00 0.00 0.00 0.00 0.00 0.00 0.00 0.00 0.00 0.00 0.00 0.01 0.00 0.00 0.00 0.00 0.00 0.00 0.00 0.00 0.00 0.00 0.00 0.01 0.01 0.02 0.02 0.02 0.03 0.03 0.03 0.03 0.03
0.01 0.01 0.01 0.01 0.00 0.00 0.00 0.00 0.00 0.00 0.00 0.00 0.00 0.00 0.00 0.00 0.00 0.00 0.00 0.00 0.00 0.01 0.01 0.00 0.00 0.00 0.00 0.00 0.00 0.00 0.00 0.00 0.00 0.01 0.01 0.01 0.02 0.02 0.03 0.03 0.02 0.02 0.02
0.01 0.01 0.00 0.01 0.01 0.00 0.00 0.00 0.00 0.00 0.00 0.00 0.00 0.00 0.00 0.00 0.00 0.00 0.00 0.00 0.00 0.00 0.00 0.00 0.00 0.00 0.00 0.00 0.00 0.00 0.00 0.00 0.00 0.00 0.01 0.01 0.01 0.02 0.02 0.02 0.02 0.02 0.02
0.00 0.00 0.00 0.00 0.01 0.00 0.00 0.00 0.00 0.00 0.00 0.00 0.00 0.00 0.00 0.00 0.00 0.00 0.00 0.00 0.00 0.00 0.00 0.00 0.00 0.00 0.00 0.00 0.00 0.00 0.00 0.00 0.00 0.01 0.01 0.01 0.01 0.01 0.01 0.02 0.02 0.02 0.02
0.00 0.00 0.00 0.00 0.00 0.00 0.00 0.00 0.00 0.00 0.00 0.00 0.00 0.00 0.00 0.00 0.00 0.00 0.00 0.00 0.00 0.00 0.00 0.00 0.00 0.00 0.00 0.00 0.00 0.00 0.00 0.00 0.00 0.00 0.01 0.01 0.01 0.01 0.01 0.01 0.02 0.02 0.02
0.00 0.00 0.00 0.00 0.00 0.00 0.00 0.00 0.00 0.00 0.00 0.00 0.00 0.00 0.00 0.00 0.00 0.00 0.00 0.00 0.00 0.00 0.00 0.00 0.00 0.00 0.00 0.00 0.00 0.00 0.00 0.00 0.00 0.00 0.01 0.01 0.01 0.01 0.01 0.02 0.02 0.03 0.03
0.00 0.00 0.00 0.00 0.00 0.00 0.00 0.00 0.00 0.00 0.00 0.00 0.00 0.00 0.00 0.00 0.00 0.00 0.00 0.00 0.00 0.00 0.00 0.00 0.00 0.00 0.00 0.00 0.00 0.01 0.01 0.01 0.01 0.01 0.01 0.01 0.01 0.00 0.01 0.01 0.02 0.02 0.03
0.00 0.00 0.00 0.00 0.00 0.00 0.00 0.00 0.00 0.00 0.00 0.00 0.00 0.00 0.00 0.00 0.00 0.00 0.00 0.00 0.00 0.00 0.00 0.00 0.00 0.00 0.00 0.00 0.01 0.01 0.01 0.02 0.03 0.03 0.02 0.03 0.02 0.02 0.01 0.01 0.01 0.01 0.02
0.00 0.00 0.00 0.00 0.00 0.00 0.00 0.00 0.00 0.00 0.00 0.00 0.00 0.00 0.00 0.00 0.00 0.00 0.00 0.00 0.00 0.00 0.00 0.00 0.00 0.00 0.00 0.00 0.00 0.01 0.01 0.02 0.03 0.03 0.02 0.02 0.02 0.01 0.01 0.00 0.01 0.01 0.01
0.00 0.00 0.00 0.00 0.00 0.00 0.00 0.00 0.00 0.00 0.00 0.00 0.00 0.00 0.00 0.00 0.00 0.00 0.00 0.00 0.00 0.00 0.00 0.00 0.00 0.00 0.00 0.00 0.00 0.00 0.01 0.01 0.01 0.01 0.01 0.01 0.01 0.01 0.01 0.00 0.00 0.01 0.01
0.00 0.00 0.00 0.00 0.00 0.00 0.00 0.00 0.00 0.00 0.00 0.00 0.00 0.00 0.00 0.00 0.00 0.01 0.01 0.01 0.00 0.00 0.00 0.00 0.00 0.00 0.00 0.00 0.00 0.00 0.00 0.00 0.01 0.01 0.01 0.01 0.01 0.01 0.01 0.00 0.00 0.00 0.00
MSLP
1021.31 1021.05 1020.73 1020.39 1020.07 1019.79 1019.53 1019.31 1019.09 1018.86 1018.60 1018.31 1017.99 1017.68 1017.38 1017.11 1016.88 1016.68 1016.50 1016.32 1016.12 1015.88 1015.61 1015.34 1015.08 1014.88 1014.74 1014.69 1014.71 1014.80 1014.93 1015.06 1015.17 1015.23 1015.23 1015.19 1015.11 1015.00 1014.88 1014.78 1014.68 1014.59 1014.53
1021.49 1021.21 1020.87 1020.52 1020.20 1019.91 1019.66 1019.44 1019.23 1019.01 1018.76 1018.48 1018.19 1017.89 1017.61 1017.37 1017.17 1017.01 1016.88 1016.74 1016.57 1016.37 1016.14 1015.88 1015.62 1015.40 1015.22 1015.12 1015.09 1015.12 1015.19 1015.28 1015.35 1015.38 1015.37 1015.31 1015.21 1015.09 1014.94 1014.79 1014.63 1014.49 1014.35
1021.58 1021.30 1020.98 1020.66 1020.36 1020.10 1019.87 1019.67 1019.48 1019.26 1019.02 1018.76 1018.47 1018.19 1017.93 1017.72 1017.56 1017.44 1017.35 1017.26 1017.15 1017.00 1016.80 1016.57 1016.32 1016.08 1015.88 1015.73 1015.64 1015.61 1015.61 1015.64 1015.66 1015.66 1015.62 1015.54 1015.43 1015.28 1015.11 1014.92 1014.73 1014.53 1014.34
1021.61 1021.37 1021.11 1020.84 1020.61 1020.40 1020.21 1020.04 1019.86 1019.65 1019.41 1019.14 1018.85 1018.58 1018.34 1018.15 1018.03 1017.95 1017.90 1017.87 1017.80 1017.70 1017.55 1017.35 1017.12 1016.88 1016.65 1016.46 1016.32 1016.22 1016.16 1016.12 1016.08 1016.03 1015.95 1015.84 1015.71 1015.55 1015.36 1015.16 1014.94 1014.70 1014.46
1021.63 1021.46 1021.28 1021.11 1020.96 1020.82 1020.68 1020.54 1020.37 1020.15 1019.90 1019.62 1019.32 1019.05 1018.82 1018.65 1018.55 1018.51 1018.51 1018.51 1018.50 1018.44 1018.33 1018.16 1017.95 1017.72 1017.48 1017.26 1017.07 1016.91 1016.78 1016.66 1016.56 1016.44 1016.32 1016.17 1016.02 1015.84 1015.65 1015.44 1015.21 1014.97 1014.70
1021.68 1021.59 1021.51 1021.44 1021.38 1021.31 1021.23 1021.11 1020.94 1020.72 1020.45 1020.15 1019.85 1019.57 1019.35 1019.20 1019.12 1019.10 1019.13 1019.16 1019.18 1019.16 1019.08 1018.95 1018.76 1018.54 1018.30 1018.06 1017.83 1017.61 1017.41 1017.22 1017.04 1016.86 1016.68 1016.50 1016.31 1016.12 1015.93 1015.73 1015.51 1015.27 1015.00
1021.75 1021.75 1021.76 1021.78 1021.81 1021.81 1021.77 1021.67 1021.51 1021.28 1021.00 1020.69 1020.38 1020.11 1019.90 1019.76 1019.70 1019.70 1019.74 1019.79 1019.83 1019.82 1019.76 1019.65 1019.48 1019.27 1019.03 1018.78 1018.52 1018.26 1018.01 1017.75 1017.50 1017.25 1017.01 1016.78 1016.57 1016.37 1016.18 1015.99 1015.79 1015.57 1015.32
1021.84 1021.90 1021.98 1022.07 1022.16 1022.21 1022.20 1022.13 1021.97 1021.75 1021.47 1021.17 1020.88 1020.62 1020.43 1020.31 1020.26 1020.27 1020.31 1020.36 1020.39 1020.39 1020.33 1020.22 1020.07 1019.86 1019.63 1019.38 1019.10 1018.81 1018.51 1018.21 1017.90 1017.59 1017.30 1017.03 1016.79 1016.57 1016.39 1016.21 1016.04 1015.85 1015.62
1021.90 1021.99 1022.11 1022.24 1022.36 1022.44 1022.46 1022.40 1022.27 1022.06 1021.81 1021.55 1021.29 1021.07 1020.91 1020.82 1020.78 1020.79 1020.82 1020.85 1020.86 1020.83 1020.77 1020.65 1020.50 1020.30 1020.08 1019.83 1019.55 1019.25 1018.92 1018.58 1018.23 1017.88 1017.54 1017.24 1016.97 1016.75 1016.56 1016.40 1016.24 1016.07 1015.87
1021.89 1021.97 1022.10 1022.24 1022.37 1022.46 1022.49 1022.46 1022.36 1022.20 1022.00 1021.79 1021.59 1021.43 1021.32 1021.25 1021.23 1021.23 1021.24 1021.24 1021.21 1021.15 1021.06 1020.93 1020.77 1020.58 1020.37 1020.13 1019.86 1019.56 1019.23 1018.87 1018.50 1018.12 1017.76 1017.43 1017.14 1016.90 1016.71 1016.55 1016.41 1016.25 1016.07
1021.77 1021.83 1021.94 1022.06 1022.18 1022.28 1022.33 1022.32 1022.26 1022.16 1022.03 1021.90 1021.78 1021.69 1021.63 1021.59 1021.58 1021.57 1021.56 1021.52 1021.45 1021.35 1021.23 1021.08 1020.92 1020.74 1020.54 1020.32 1020.07 1019.78 1019.46 1019.10 1018.72 1018.33 1017.95 1017.61 1017.31 1017.06 1016.86 1016.69 1016.54 1016.39 1016.21
1021.54 1021.57 1021.64 1021.74 1021.84 1021.94 1022.00 1022.03 1022.02 1021.99 1021.94 1021.89 1021.85 1021.83 1021.82 1021.82 1021.81 1021.79 1021.75 1021.67 1021.57 1021.44 1021.29 1021.13 1020.96 1020.79 1020.60 1020.40 1020.18 1019.91 1019.61 1019.26 1018.89 1018.51 1018.13 1017.78 1017.47 1017.21 1017.00 1016.82 1016.66 1016.49 1016.30
1021.20 1021.20 1021.24 1021.31 1021.40 1021.49 1021.57 1021.64 1021.68 1021.72 1021.74 1021.77 1021.80 1021.84 1021.87 1021.89 1021.90 1021.87 1021.80 1021.70 1021.57 1021.42 1021.26 1021.09 1020.93 1020.77 1020.60 1020.42 1020.22 1019.97 1019.69 1019.37 1019.01 1018.64 1018.28 1017.93 1017.62 1017.35 1017.12 1016.92 1016.74 1016.55 1016.34
1020.77 1020.76 1020.78 1020.84 1020.91 1021.00 1021.10 1021.19 1021.28 1021.37 1021.46 1021.54 1021.63 1021.71 1021.77 1021.81 1021.82 1021.79 1021.71 1021.60 1021.47 1021.31 1021.15 1021.00 1020.84 1020.70 1020.55 1020.38 1020.19 1019.97 1019.70 1019.39 1019.05 1018.70 1018.35 1018.02 1017.72 1017.44 1017.20 1016.99 1016.78 1016.56 1016.32
1020.30 1020.28 1020.29 1020.33 1020.40 1020.49 1020.60 1020.71 1020.83 1020.95 1021.07 1021.20 1021.31 1021.42 1021.50 1021.55 1021.56 1021.54 1021.47 1021.38 1021.26 1021.12 1020.98 1020.85 1020.72 1020.59 1020.45 1020.29 1020.11 1019.88 1019.62 1019.32 1019.00 1018.67 1018.33 1018.01 1017.72 1017.45 1017.20 1016.97 1016.74 1016.50 1016.25
1019.80 1019.78 1019.79 1019.82 1019.88 1019.96 1020.07 1020.18 1020.31 1020.44 1020.58 1020.72 1020.84 1020.96 1021.05 1021.11 1021.14 1021.13 1021.09 1021.03 1020.94 1020.85 1020.75 1020.65 1020.54 1020.43 1020.29 1020.13 1019.94 1019.71 1019.44 1019.15 1018.83 1018.51 1018.19 1017.89 1017.61 1017.35 1017.10 1016.86 1016.62 1016.37 1016.10
1019.31 1019.29 1019.28 1019.29 1019.33 1019.39 1019.47 1019.58 1019.69 1019.82 1019.95 1020.08 1020.21 1020.32 1020.42 1020.49 1020.55 1020.57 1020.58 1020.56 1020.54 1020.49 1020.44 1020.38 1020.30 1020.20 1020.06 1019.89 1019.68 1019.43 1019.16 1018.85 1018.54 1018.22 1017.92 1017.63 1017.37 1017.12 1016.87 1016.64 1016.39 1016.13 1015.86
1018.83 1018.79 1018.75 1018.73 1018.73 1018.76 1018.80 1018.87 1018.95 1019.06 1019.17 1019.29 1019.41 1019.53 1019.64 1019.74 1019.82 1019.90 1019.96 1020.00 1020.04 1020.05 1020.05 1020.03 1019.97 1019.88 1019.74 1019.55 1019.33 1019.06 1018.77 1018.46 1018.15 1017.84 1017.55 1017.27 1017.02 1016.77 1016.54 1016.30 1016.06 1015.80 1015.53
1018.38 1018.29 1018.21 1018.13 1018.07 1018.04 1018.03 1018.05 1018.10 1018.17 1018.26 1018.37 1018.49 1018.62 1018.75 1018.88 1019.01 1019.13 1019.25 1019.36 1019.45 1019.52 1019.56 1019.57 1019.53 1019.45 1019.31 1019.12 1018.88 1018.61 1018.31 1018.00 1017.69 1017.39 1017.10 1016.84 1016.59 1016.35 1016.11 1015.88 1015.63 1015.38 1015.12
1017.97 1017.81 1017.65 1017.50 1017.37 1017.27 1017.19 1017.16 1017.15 1017.19 1017.26 1017.36 1017.49 1017.63 1017.79 1017.96 1018.13 1018.31 1018.47 1018.63 1018.77 1018.88 1018.96 1018.99 1018.97 1018.89 1018.76 1018.57 1018.34 1018.08 1017.79 1017.49 1017.20 1016.91 1016.64 1016.38 1016.13 1015.88 1015.64 1015.39 1015.13 1014.88 1014.62
1017.61 1017.37 1017.12 1016.88 1016.67 1016.48 1016.33 1016.23 1016.18 1016.18 1016.23 1016.33 1016.46 1016.63 1016.82 1017.02 1017.23 1017.45 1017.65 1017.84 1018.01 1018.14 1018.23 1018.28 1018.28 1018.22 1018.10 1017.94 1017.74 1017.50 1017.25 1016.98 1016.72 1016.45 1016.19 1015.94 1015.68 1015.42 1015.15 1014.88 1014.60 1014.33 1014.07
1017.30 1016.97 1016.64 1016.31 1016.01 1015.73 1015.51 1015.34 1015.24 1015.21 1015.24 1015.33 1015.48 1015.66 1015.87 1016.10 1016.34 1016.57 1016.79 1016.99 1017.16 1017.30 1017.40 1017.46 1017.47 1017.43 1017.35 1017.23 1017.07 1016.89 1016.70 1016.48 1016.26 1016.03 1015.78 1015.52 1015.25 1014.97 1014.67 1014.36 1014.06 1013.76 1013.49
1017.06 1016.66 1016.24 1015.83 1015.44 1015.09 1014.79 1014.56 1014.40 1014.33 1014.34 1014.42 1014.56 1014.75 1014.98 1015.22 1015.46 1015.70 1015.91 1016.10 1016.26 1016.39 1016.48 1016.54 1016.57 1016.56 1016.53 1016.46 1016.38 1016.27 1016.15 1016.00 1015.83 1015.63 1015.41 1015.15 1014.87 1014.55 1014.22 1013.88 1013.54 1013.21 1012.91
1016.87 1016.41 1015.93 1015.46 1014.99 1014.56 1014.19 1013.90 1013.69 1013.57 1013.55 1013.61 1013.74 1013.93 1014.15 1014.39 1014.62 1014.84 1015.04 1015.20 1015.34 1015.44 1015.52 1015.58 1015.62 1015.65 1015.67 1015.68 1015.67 1015.64 1015.60 1015.52 1015.40 1015.25 1015.04 1014.79 1014.50 1014.16 1013.80 1013.42 1013.04 1012.68 1012.36
1016.71 1016.21 1015.69 1015.16 1014.64 1014.15 1013.71 1013.35 1013.08 1012.92 1012.86 1012.89 1013.00 1013.17 1013.38 1013.60 1013.81 1014.01 1014.17 1014.31 1014.42 1014.50 1014.57 1014.63 1014.69 1014.76 1014.83 1014.90 1014.97 1015.02 1015.04 1015.03 1014.96 1014.84 1014.66 1014.42 1014.12 1013.77 1013.39 1012.99 1012.59 1012.20 1011.85
1016.52 1016.01 1015.46 1014.89 1014.32 1013.78 1013.28 1012.86 1012.54 1012.32 1012.22 1012.22 1012.30 1012.45 1012.64 1012.84 1013.04 1013.21 1013.35 1013.47 1013.55 1013.62 1013.68 1013.75 1013.83 1013.92 1014.04 1014.16 1014.28 1014.39 1014.47 1014.50 1014.48 1014.40 1014.24 1014.01 1013.72 1013.37 1012.99 1012.58 1012.17 1011.77 1011.40
Thickness
5652 5651 5649 5649 5648 5648 5648 5648 5648 5648 5648 5648 5648 5648 5648 5648 5649 5649 5649 5650 5650 5651 5652 5653 5654 5654 5655 5656 5656 5656 5657 5656 5656 5657 5657 5657 5657 5656 5656 5657 5657 5657 5657
5645 5644 5642 5641 5641 5640 5640 5640 5639 5640 5640 5640 5640 5639 5639 5640 5640 5640 5640 5641 5641 5641 5642 5643 5644 5645 5646 5647 5647 5648 5648 5648 5649 5649 5650 5650 5650 5650 5650 5650 5651 5651 5652
5638 5637 5635 5634 5633 5632 5632 5632 5632 5632 5632 5632 5631 5631 5631 5632 5631 5631 5631 5631 5631 5631 5632 5633 5633 5634 5635 5637 5638 5639 5639 5640 5640 5641 5642 5642 5643 5643 5643 5644 5644 5645 5646
5631 5630 5628 5626 5625 5624 5624 5624 5623 5623 5623 5623 5623 5623 5623 5623 5623 5622 5622 5622 5621 5621 5621 5622 5622 5623 5624 5625 5627 5628 5629 5630 5631 5632 5633 5634 5634 5635 5636 5636 5637 5638 5639
5623 5622 5620 5618 5617 5616 5616 5616 5615 5614 5613 5614 5615 5615 5614 5614 5614 5613 5612 5611 5611 5610 5610 5610 5610 5610 5611 5612 5614 5616 5617 5619 5621 5623 5624 5624 5625 5627 5628 5629 5630 5630 5632
5616 5614 5612 5610 5609 5608 5607 5606 5605 5605 5604 5604 5606 5606 5605 5605 5604 5603 5601 5601 5600 5599 5598 5598 5598 5598 5598 5599 5601 5603 5605 5607 5609 5611 5613 5615 5616 5618 5619 5620 5621 5623 5624
5608 5606 5604 5602 5601 5599 5597 5596 5596 5596 5595 5595 5596 5595 5595 5595 5594 5592 5590 5589 5588 5587 5587 5586 5586 5585 5586 5586 5588 5590 5592 5595 5597 5599 5601 5604 5606 5608 5609 5611 5612 5614 5615
5599 5598 5596 5594 5593 5591 5589 5588 5587 5586 5585 5584 5582 5583 5582 5583 5583 5582 5579 5578 5576 5575 5574 5574 5573 5573 5573 5574 5574 5577 5579 5581 5584 5587 5589 5592 5595 5597 5598 5600 5602 5604 5606
5591 5590 5588 5587 5585 5584 5581 5579 5578 5576 5574 5573 5571 5570 5569 5568 5566 5568 5567 5565 5564 5563 5562 5561 5560 5560 5560 5561 5562 5563 5565 5567 5571 5574 5577 5580 5583 5585 5587 5590 5592 5594 5596
5584 5583 5581 5579 5577 5575 5573 5571 5569 5567 5565 5562 5561 5558 5556 5554 5553 5554 5554 5552 5551 5550 5548 5548 5547 5547 5547 5547 5548 5550 5552 5554 5557 5560 5564 5567 5570 5573 5575 5578 5581 5583 5585
5577 5576 5573 5571 5569 5567 5565 5562 5560 5557 5555 5552 5550 5548 5545 5542 5540 5539 5540 5539 5538 5537 5536 5535 5534 5534 5534 5534 5535 5536 5538 5540 5543 5546 5549 5553 5556 5559 5561 5564 5568 5571 5573
5569 5568 5566 5563 5561 5558 5556 5553 5551 5548 5545 5542 5539 5537 5534 5531 5529 5526 5526 5525 5524 5524 5524 5522 5521 5520 5520 5520 5521 5522 5524 5526 5528 5532 5535 5538 5541 5543 5546 5550 5554 5558 5561
5562 5561 5558 5555 5552 5550 5547 5545 5541 5538 5535 5532 5529 5526 5523 5520 5518 5515 5513 5512 5511 5512 5511 5510 5508 5507 5506 5506 5507 5508 5509 5511 5514 5516 5519 5523 5525 5528 5531 5534 5539 5544 5548
5555 5554 5551 5547 5544 5541 5538 5535 5532 5528 5525 5521 5518 5514 5511 5508 5505 5502 5499 5497 5497 5497 5497 5496 5495 5493 5492 5492 5492 5493 5494 5496 5499 5501 5504 5507 5510 5513 5516 5519 5524 5528 5533
5547 5545 5542 5539 5535 5532 5529 5525 5521 5518 5514 5510 5506 5502 5499 5496 5493 5490 5487 5484 5481 5482 5484 5483 5480 5479 5477 5477 5478 5478 5479 5481 5484 5487 5489 5492 5495 5498 5501 5505 5508 5512 5517
5539 5536 5533 5530 5526 5523 5519 5515 5511 5507 5503 5499 5494 5491 5488 5484 5481 5477 5474 5471 5467 5466 5467 5468 5465 5464 5463 5463 5464 5464 5465 5467 5469 5472 5475 5477 5480 5483 5486 5490 5493 5496 5500
5530 5527 5524 5521 5517 5514 5510 5505 5501 5497 5492 5488 5484 5480 5476 5472 5468 5465 5461 5458 5454 5451 5452 5454 5451 5451 5450 5449 5450 5451 5452 5454 5456 5458 5460 5463 5465 5468 5471 5475 5478 5481 5485
5521 5518 5515 5511 5508 5504 5500 5495 5491 5486 5481 5477 5473 5468 5465 5461 5457 5453 5449 5446 5442 5440 5438 5439 5438 5437 5436 5436 5436 5437 5438 5440 5442 5444 5447 5449 5451 5454 5457 5460 5463 5467 5470
5511 5508 5505 5502 5498 5494 5490 5486 5481 5476 5471 5467 5462 5458 5454 5449 5445 5441 5437 5434 5431 5429 5426 5425 5425 5424 5423 5423 5423 5424 5425 5427 5429 5431 5433 5435 5437 5439 5442 5445 5448 5452 5455
5501 5498 5495 5492 5488 5484 5480 5475 5471 5466 5461 5456 5452 5447 5443 5438 5434 5430 5427 5423 5420 5417 5414 5412 5412 5411 5410 5410 5409 5410 5412 5413 5415 5418 5419 5420 5422 5424 5427 5430 5433 5437 5440
5491 5487 5484 5480 5477 5473 5469 5465 5460 5455 5450 5445 5441 5436 5432 5428 5425 5421 5418 5414 5410 5406 5403 5401 5400 5400 5399 5397 5397 5397 5399 5400 5402 5404 5404 5406 5408 5410 5412 5415 5418 5422 5426
5479 5475 5472 5469 5466 5462 5459 5456 5451 5445 5440 5435 5430 5426 5422 5418 5415 5412 5410 5407 5402 5397 5394 5391 5390 5389 5388 5386 5385 5385 5385 5386 5389 5390 5390 5393 5394 5396 5398 5401 5405 5408 5412
5467 5463 5461 5458 5455 5452 5448 5445 5441 5436 5430 5424 5419 5415 5411 5408 5404 5401 5398 5396 5393 5391 5388 5384 5381 5380 5378 5376 5374 5373 5373 5373 5374 5376 5377 5381 5382 5383 5385 5388 5391 5395 5398
5455 5452 5449 5446 5443 5441 5438 5434 5430 5425 5420 5414 5409 5404 5400 5397 5394 5390 5387 5384 5381 5379 5377 5375 5373 5371 5369 5367 5364 5364 5363 5363 5364 5364 5364 5367 5370 5372 5374 5376 5378 5381 5384
5443 5440 5437 5434 5431 5429 5426 5423 5419 5414 5409 5405 5400 5395 5391 5388 5385 5382 5378 5374 5372 5369 5368 5366 5365 5363 5360 5358 5356 5354 5352 5352 5353 5354 5352 5353 5356 5359 5363 5364 5365 5366 5369
5430 5428 5425 5422 5418 5416 5414 5411 5407 5402 5399 5395 5391 5387 5384 5380 5376 5373 5369 5365 5363 5361 5358 5356 5354 5353 5351 5348 5347 5344 5342 5340 5339 5340 5341 5339 5340 5342 5348 5352 5352 5353 5355